Dewpoint
48 49 51 54 57 58 59 60 60 61 62 63 63 63 64 65 66 67 68 69 69 69 70 71 72 72 71 71 72 72 72 72 72 71 71 70 70 70 71 71 71 72 72 72 72 72 72 72 72 71 71 70 69 68 67 67 67 67 66 66 65 65 63
48 49 50 53 55 58 59 60 60 61 61 62 63 64 64 65 66 66 67 68 69 69 70 71 71 72 71 71 72 72 72 72 72 72 71 71 71 71 71 71 71 72 72 72 72 72 72 72 71 71 70 69 68 67 66 66 66 66 65 65 64 64 63
48 50 50 52 54 56 59 60 61 61 61 62 63 64 64 65 66 66 67 68 69 69 70 70 71 71 72 72 71 72 72 72 72 72 71 71 71 71 71 71 71 71 71 72 72 72 72 71 71 70 70 68 67 66 65 66 66 65 65 65 64 63 64
48 49 51 52 53 55 58 60 61 61 61 62 63 64 64 65 66 67 67 68 69 69 70 70 71 71 72 72 71 72 72 72 72 72 72 71 71 71 71 71 71 71 71 71 71 71 72 71 70 70 71 68 67 66 65 65 65 65 65 64 63 63 63
47 48 51 52 53 54 56 58 60 61 61 62 63 64 64 65 66 67 67 68 69 69 70 70 71 71 72 72 72 72 72 72 72 72 72 72 71 71 71 71 71 71 70 71 71 71 71 71 70 69 69 67 66 66 65 65 65 65 64 64 63 63 63
47 48 50 52 53 53 55 56 59 60 61 61 63 64 65 65 66 66 67 69 69 70 70 71 71 71 71 72 72 72 72 72 72 72 72 72 72 71 71 71 71 70 70 70 71 71 71 70 70 69 68 66 65 65 64 65 64 64 64 64 63 64 63
47 48 48 50 53 54 54 55 57 59 60 61 62 64 65 65 65 66 67 69 69 70 70 71 71 71 72 72 72 72 72 72 72 72 73 72 72 71 71 71 71 70 70 71 71 70 70 70 70 69 68 65 65 64 64 65 65 64 64 63 63 64 63
46 48 49 49 51 53 54 55 56 58 60 61 62 63 64 65 65 65 67 68 69 70 70 71 71 72 72 72 72 72 72 72 72 72 73 72 72 72 71 71 70 70 70 70 70 70 70 70 69 69 67 66 65 65 64 65 65 64 64 63 63 63 64
46 48 49 49 51 53 54 55 57 58 60 61 62 63 64 65 65 65 66 68 69 70 70 71 71 72 72 72 72 72 72 72 72 72 72 72 72 71 71 71 71 71 70 70 70 70 69 69 69 69 67 66 65 65 65 65 64 64 64 64 63 63 63
45 47 49 49 50 52 54 55 57 59 61 61 62 63 64 64 64 65 66 67 69 69 70 71 71 72 72 72 72 72 72 72 72 72 72 72 72 71 71 71 71 71 70 70 70 70 69 69 68 68 67 66 65 65 65 65 64 64 64 64 64 63 63
45 47 48 49 50 52 54 55 57 60 61 62 62 63 64 64 64 64 65 67 68 69 70 71 71 72 72 72 72 71 72 72 72 72 72 72 72 71 71 71 71 70 70 70 70 70 69 69 68 68 67 66 65 65 65 65 64 64 64 64 64 64 64
46 46 48 49 50 52 53 55 57 59 61 62 62 62 64 64 64 64 65 66 68 69 70 71 71 72 72 72 72 72 71 71 72 72 72 72 72 71 71 71 71 70 70 70 70 69 69 68 68 67 67 66 65 65 65 65 65 64 64 63 63 64 64
46 47 48 48 50 52 54 56 57 58 60 61 61 62 64 64 64 64 65 65 67 68 70 71 71 72 72 72 71 72 71 71 71 72 72 72 72 72 71 71 70 70 70 70 69 69 69 68 68 68 67 66 65 65 65 65 65 65 64 64 64 63 63
54 46 47 49 50 52 54 56 57 58 59 60 61 62 63 64 64 64 65 65 66 68 69 70 71 71 72 72 71 71 71 71 71 72 72 72 72 72 71 71 71 70 70 70 69 69 69 68 68 68 67 66 65 65 65 65 65 65 65 64 64 64 63
47 47 47 48 50 52 54 55 57 58 59 60 60 61 62 64 64 65 65 65 66 67 68 70 70 71 71 71 71 71 71 71 71 71 72 72 72 72 71 71 71 71 70 70 69 69 69 69 68 68 67 67 66 65 65 65 65 65 64 64 64 64 63
45 46 46 48 50 52 54 55 57 58 59 60 60 61 61 63 64 65 65 65 65 66 68 69 70 71 71 71 71 71 71 72 72 71 71 71 71 72 71 71 71 71 70 70 69 69 69 68 68 68 67 67 66 66 66 66 65 64 60 62 64 64 64
49 49 49 50 51 52 53 55 57 58 59 60 61 61 62 63 63 64 64 65 65 66 67 69 70 70 71 71 71 71 71 71 71 71 71 71 71 71 71 71 71 71 70 70 69 69 69 69 68 68 67 67 66 66 66 66 65 61 60 61 63 65 64
50 51 53 53 54 54 55 56 58 59 59 60 61 62 62 63 63 64 64 64 65 65 66 68 69 69 70 71 71 71 71 71 71 71 71 71 71 71 71 71 71 70 70 70 69 69 69 68 69 68 68 67 67 66 66 66 62 60 60 60 61 63 65
51 52 54 56 56 57 56 57 58 60 60 60 61 62 63 64 63 64 64 65 65 65 65 66 67 69 70 70 71 71 71 71 71 71 71 71 71 71 71 71 71 70 69 69 69 69 69 69 69 69 68 67 67 66 67 66 62 60 59 60 60 62 64
51 52 53 55 56 56 56 58 59 60 60 61 61 62 63 64 64 64 64 64 65 65 65 66 66 68 69 70 70 71 71 71 71 71 71 71 71 71 71 71 70 70 69 69 69 69 69 69 69 69 69 68 67 67 66 66 61 59 59 59 59 61 63
52 53 53 55 56 56 57 57 58 59 61 61 61 62 63 64 64 64 64 64 65 65 65 65 66 67 68 69 70 71 71 71 71 71 71 71 71 71 71 71 70 70 69 68 68 68 68 69 69 69 69 68 68 67 66 66 59 58 58 58 58 59 62
45 48 52 54 56 56 57 57 58 59 60 62 63 63 63 63 64 64 64 64 65 65 65 65 66 66 67 68 69 70 70 71 70 70 71 71 71 71 71 71 71 70 69 69 69 69 69 69 69 69 69 69 68 67 67 67 57 57 57 57 57 59 65
38 40 46 53 55 55 56 56 57 58 61 62 62 63 63 63 64 64 64 64 65 65 65 65 65 66 67 68 68 69 70 70 70 70 70 71 71 71 71 71 71 70 70 69 70 70 69 69 69 69 69 69 68 68 67 65 58 57 56 56 56 60 65
48 41 46 49 53 55 56 56 56 58 58 59 61 62 63 63 64 65 65 65 65 65 65 65 65 65 66 67 68 69 69 70 70 70 70 70 70 71 71 71 71 70 70 70 70 69 69 69 69 69 69 68 68 68 67 65 57 55 55 56 56 60 64
55 54 52 43 48 53 57 59 57 56 58 59 60 62 63 63 64 65 65 65 65 65 65 65 64 65 65 66 67 68 69 70 70 70 70 70 71 71 71 70 71 71 71 70 70 70 69 69 68 68 68 68 68 68 66 63 57 54 55 55 55 61 64
64 61 60 62 66 65 55 61 64 63 61 62 62 63 64 64 64 64 65 65 65 64 64 65 65 65 65 65 66 68 69 69 70 70 70 70 71 71 71 71 71 71 71 70 70 70 69 68 68 67 67 67 67 67 66 63 59 58 54 55 55 58 64
66 65 64 65 66 70 65 58 62 64 64 65 66 66 64 64 63 63 64 64 64 64 64 64 65 65 65 65 65 67 68 69 69 70 70 71 71 71 71 71 71 71 71 70 70 69 69 68 68 67 66 66 66 66 65 63 60 58 53 54 55 56 59
64 64 64 66 68 68 68 68 66 67 68 68 69 70 70 69 65 63 63 63 64 64 64 64 65 65 65 65 65 65 67 68 69 69 71 71 71 71 71 72 72 71 70 70 70 69 69 68 68 67 66 66 66 65 65 65 59 59 54 54 53 54 56
64 64 64 64 65 66 67 66 67 67 68 69 69 69 70 69 68 68 68 67 67 67 66 66 65 64 64 65 65 65 66 67 68 69 71 72 72 72 72 72 71 71 70 69 69 69 68 67 67 66 65 65 66 65 65 64 62 57 57 52 52 52 53
65 65 65 64 64 65 66 66 67 68 68 69 69 69 69 69 68 68 69 69 71 72 70 69 67 64 65 65 66 67 67 67 69 70 72 72 72 72 72 72 71 70 69 68 68 67 66 66 67 66 65 65 65 65 65 63 62 57 55 54 51 50 51
66 66 66 65 65 65 65 65 66 68 69 69 69 68 68 68 68 68 68 68 70 72 72 72 71 70 70 71 71 71 72 72 72 73 73 73 73 72 72 70 69 68 68 68 68 67 66 66 66 65 65 65 64 64 64 63 61 59 57 54 51 51 52
65 66 65 66 65 65 64 65 66 68 68 69 69 68 68 69 69 68 68 69 69 70 71 71 71 71 71 71 72 72 71 71 71 71 71 71 70 70 69 68 68 68 67 67 67 67 66 66 66 65 64 64 64 64 64 63 61 59 58 57 55 55 53
63 63 64 64 65 65 65 65 66 67 68 67 68 68 68 67 68 68 68 68 68 68 68 68 70 70 70 70 70 70 70 70 70 70 69 69 69 69 68 68 67 66 66 67 68 67 66 65 64 64 64 64 64 64 64 63 61 59 58 57 56 56 57
62 62 64 64 64 65 66 66 67 67 67 67 67 68 67 68 68 68 68 68 69 69 69 69 69 69 70 70 70 70 70 70 70 69 68 68 67 67 67 67 66 66 67 67 66 65 65 64 64 63 63 64 64 64 63 62 61 59 58 57 57 57 57
63 63 64 65 64 65 66 66 67 67 68 67 68 67 67 67 67 68 68 68 69 69 68 68 68 68 68 68 69 69 69 69 68 68 67 66 66 65 65 67 67 66 64 60 65 66 64 63 63 63 64 64 64 64 63 62 61 60 55 58 55 56 57
63 63 64 65 66 66 66 67 67 67 67 67 66 66 67 67 67 67 68 68 68 68 68 68 68 68 68 68 68 68 68 68 67 66 64 61 58 55 52 49 46 54 62 60 59 59 57 57 63 64 63 63 64 64 63 62 61 56 51 50 49 50 52
61 62 63 64 65 65 66 66 68 67 67 67 66 65 66 66 66 67 67 67 67 67 67 67 68 68 68 67 67 66 66 65 63 63 62 60 59 57 57 55 52 43 44 48 49 47 50 53 54 55 57 63 63 61 58 57 54 49 49 48 48 48 48
60 61 63 64 64 64 65 65 66 66 66 67 68 66 65 66 66 65 66 67 67 66 67 67 67 67 67 67 66 65 65 64 63 62 60 60 60 59 60 60 58 54 45 42 45 44 43 43 47 50 52 54 58 58 58 52 49 49 47 47 47 47 47